�������l�o���
Date,Time,MP-1(��Sv/h),MP-2(��Sv/h),MP-3(��Sv/h),MP-4(��Sv/h),MP-5(��Sv/h),MP-6(��Sv/h),MP-7(��Sv/h),MP-8(��Sv/h),����,����(m/s),���J
2017/12/13,00:00,0.892,1.479,0.929,1.751,1.188,0.493,0.876,0.845,���쐼,5.2,��
2017/12/13,00:10,0.890,1.478,0.928,1.750,1.191,0.493,0.878,0.844,���쐼,6.2,��
2017/12/13,00:20,0.889,1.481,0.930,1.751,1.190,0.494,0.876,0.844,���쐼,6.1,��
2017/12/13,00:30,0.891,1.480,0.929,1.749,1.188,0.493,0.878,0.843,���쐼,4.6,��
2017/12/13,00:40,0.891,1.479,0.930,1.756,1.189,0.493,0.877,0.844,��,2.3,��
2017/12/13,00:50,0.890,1.480,0.928,1.752,1.188,0.494,0.877,0.842,��,2.3,��
2017/12/13,01:00,0.891,1.479,0.928,1.752,1.190,0.492,0.877,0.845,���쐼,4.1,��
2017/12/13,01:10,0.890,1.478,0.929,1.752,1.186,0.494,0.875,0.844,���쐼,5.4,��
2017/12/13,01:20,0.889,1.477,0.929,1.753,1.188,0.494,0.878,0.844,�k��,3.0,��
2017/12/13,01:30,0.890,1.478,0.928,1.752,1.189,0.493,0.878,0.844,���k��,1.9,��
2017/12/13,01:40,0.889,1.477,0.930,1.748,1.187,0.494,0.877,0.844,���쐼,3.0,��
2017/12/13,01:50,0.890,1.476,0.927,1.749,1.186,0.493,0.875,0.843,���쐼,2.8,��
2017/12/13,02:00,0.889,1.479,0.928,1.751,1.185,0.491,0.876,0.844,���쐼,4.1,��
2017/12/13,02:10,0.888,1.477,0.927,1.751,1.189,0.492,0.874,0.844,���쐼,4.7,��
2017/12/13,02:20,0.889,1.479,0.928,1.753,1.186,0.492,0.874,0.844,���쐼,6.0,��
2017/12/13,02:30,0.889,1.477,0.928,1.749,1.190,0.491,0.877,0.844,�쐼,5.1,��
2017/12/13,02:40,0.887,1.477,0.927,1.751,1.187,0.493,0.876,0.842,�쐼,4.4,��
2017/12/13,02:50,0.887,1.479,0.929,1.749,1.185,0.493,0.875,0.845,�쐼,2.3,��
2017/12/13,03:00,0.890,1.476,0.928,1.750,1.187,0.492,0.874,0.843,�k�k��,0.8,��
2017/12/13,03:10,0.890,1.477,0.927,1.753,1.187,0.491,0.877,0.844,�k�k��,1.9,��
2017/12/13,03:20,0.887,1.477,0.927,1.751,1.185,0.493,0.875,0.846,�k�k��,2.6,��
2017/12/13,03:30,0.888,1.476,0.929,1.753,1.186,0.495,0.876,0.843,�k�k��,3.0,��
2017/12/13,03:40,0.888,1.475,0.928,1.748,1.187,0.493,0.878,0.843,�k�k��,3.4,��
2017/12/13,03:50,0.888,1.474,0.928,1.748,1.186,0.492,0.876,0.844,�k��,3.2,��
2017/12/13,04:00,0.889,1.477,0.928,1.750,1.185,0.492,0.877,0.846,�k��,2.6,��
2017/12/13,04:10,0.888,1.477,0.928,1.750,1.184,0.493,0.878,0.844,�k�k��,1.5,��
2017/12/13,04:20,0.889,1.477,0.928,1.749,1.186,0.491,0.875,0.843,�k�k��,3.4,��
2017/12/13,04:30,0.889,1.477,0.927,1.752,1.187,0.493,0.877,0.844,�k�k��,3.0,��
2017/12/13,04:40,0.888,1.475,0.926,1.746,1.183,0.492,0.875,0.842,�k�k��,3.5,��
2017/12/13,04:50,0.888,1.475,0.927,1.748,1.187,0.491,0.874,0.844,�k��,4.8,��
2017/12/13,05:00,0.889,1.477,0.925,1.747,1.187,0.491,0.876,0.844,�k��,4.6,��
2017/12/13,05:10,0.887,1.477,0.926,1.748,1.187,0.490,0.876,0.842,�k��,5.1,��
2017/12/13,05:20,0.888,1.477,0.928,1.748,1.184,0.494,0.874,0.843,���k��,5.4,��
2017/12/13,05:30,0.888,1.475,0.926,1.750,1.185,0.491,0.876,0.843,���k��,5.0,��
2017/12/13,05:40,0.888,1.477,0.929,1.747,1.187,0.493,0.874,0.842,���k��,5.2,��
2017/12/13,05:50,0.888,1.476,0.927,1.749,1.185,0.492,0.876,0.841,��,3.7,��
2017/12/13,06:00,0.887,1.478,0.928,1.752,1.186,0.492,0.876,0.842,��,3.3,��
2017/12/13,06:10,0.888,1.476,0.925,1.749,1.184,0.491,0.874,0.843,���쐼,2.6,��
2017/12/13,06:20,0.886,1.476,0.925,1.749,1.184,0.492,0.876,0.842,��,2.0,��
2017/12/13,06:30,0.887,1.475,0.926,1.749,1.184,0.489,0.876,0.841,��,2.5,��
2017/12/13,06:40,0.886,1.475,0.926,1.749,1.185,0.491,0.875,0.842,��,2.3,��
2017/12/13,06:50,0.886,1.477,0.925,1.747,1.184,0.491,0.876,0.844,��,1.2,��
2017/12/13,07:00,0.886,1.473,0.924,1.751,1.184,0.490,0.876,0.842,��,1.5,��
2017/12/13,07:10,0.887,1.475,0.927,1.748,1.184,0.492,0.873,0.842,��,2.3,��
2017/12/13,07:20,0.891,1.476,0.926,1.747,1.185,0.488,0.874,0.844,���쐼,2.6,��
2017/12/13,07:30,0.887,1.477,0.926,1.749,1.181,0.488,0.874,0.845,���쐼,2.5,��
2017/12/13,07:40,0.888,1.476,0.923,1.747,1.186,0.489,0.875,0.844,���쐼,2.6,��
2017/12/13,07:50,0.889,1.476,0.927,1.748,1.182,0.491,0.875,0.842,���쐼,3.5,��
2017/12/13,08:00,0.889,1.475,0.928,1.751,1.184,0.491,0.877,0.845,���쐼,4.0,��
2017/12/13,08:10,0.888,1.475,0.927,1.749,1.182,0.492,0.876,0.843,���쐼,4.7,��
2017/12/13,08:20,0.889,1.477,0.929,1.752,1.186,0.493,0.875,0.845,��,4.3,��
2017/12/13,08:30,0.891,1.474,0.926,1.749,1.187,0.492,0.877,0.845,�쐼,4.7,��
2017/12/13,08:40,0.890,1.475,0.930,1.751,1.187,0.491,0.879,0.845,���쐼,4.1,��
2017/12/13,08:50,0.892,1.479,0.928,1.749,1.186,0.492,0.877,0.844,���쐼,4.0,��
2017/12/13,09:00,0.893,1.478,0.928,1.752,1.185,0.490,0.877,0.842,��,4.2,��
2017/12/13,09:10,0.890,1.478,0.927,1.752,1.188,0.491,0.878,0.843,���k��,3.9,��
2017/12/13,09:20,0.890,1.478,0.927,1.752,1.186,0.493,0.880,0.846,���쐼,2.8,��
2017/12/13,09:30,0.892,1.478,0.929,1.752,1.187,0.491,0.879,0.844,���쐼,4.1,��
2017/12/13,09:40,0.891,1.477,0.930,1.755,1.187,0.490,0.878,0.845,��,3.7,��
2017/12/13,09:50,0.891,1.477,0.928,1.748,1.186,0.492,0.879,0.846,���쐼,3.5,��
2017/12/13,10:00,0.890,1.476,0.929,1.751,1.186,0.492,0.877,0.845,��,3.4,��
2017/12/13,10:10,0.891,1.477,0.929,1.752,1.189,0.495,0.876,0.844,��,2.9,��
2017/12/13,10:20,0.889,1.474,0.930,1.752,1.189,0.492,0.876,0.844,��,3.6,��
2017/12/13,10:30,0.892,1.477,0.930,1.752,1.191,0.493,0.876,0.845,�쐼,2.9,��
2017/12/13,10:40,0.892,1.472,0.931,1.761,1.189,0.493,0.875,0.846,�쐼,2.3,��
2017/12/13,10:50,0.893,1.476,0.932,1.754,1.190,0.495,0.873,0.846,��쐼,1.1,��
2017/12/13,11:00,0.894,1.476,0.934,1.755,1.190,0.493,0.874,0.846,���쐼,0.9,��
2017/12/13,11:10,0.894,1.477,0.929,1.756,1.191,0.494,0.876,0.845,���k��,3.3,��
2017/12/13,11:20,0.894,1.476,0.932,1.756,1.190,0.494,0.878,0.844,���쐼,2.0,��
2017/12/13,11:30,0.895,1.482,0.931,1.755,1.190,0.493,0.876,0.845,���쐼,3.1,��
2017/12/13,11:40,0.893,1.478,0.934,1.756,1.192,0.495,0.878,0.846,�k��,3.0,��
2017/12/13,11:50,0.891,1.483,0.930,1.755,1.191,0.493,0.878,0.845,�k,5.5,��
2017/12/13,12:00,0.895,1.480,0.930,1.753,1.192,0.493,0.876,0.845,�k,6.3,��
2017/12/13,12:10,0.895,1.478,0.931,1.754,1.191,0.493,0.877,0.845,�k,5.8,�L
2017/12/13,12:20,0.893,1.481,0.930,1.755,1.191,0.492,0.876,0.844,�k�k��,6.3,�L
2017/12/13,12:30,0.892,1.482,0.931,1.754,1.191,0.493,0.876,0.845,�k�k��,6.1,�L
2017/12/13,12:40,0.895,1.480,0.932,1.756,1.192,0.494,0.877,0.845,�k�k��,6.1,�L
2017/12/13,12:50,0.894,1.482,0.931,1.756,1.192,0.494,0.877,0.843,�k�k��,6.8,�L
2017/12/13,13:00,0.895,1.482,0.931,1.754,1.191,0.497,0.878,0.844,�k�k��,5.8,�L
2017/12/13,13:10,0.895,1.479,0.930,1.754,1.191,0.493,0.878,0.844,�k�k��,4.9,�L
2017/12/13,13:20,0.892,1.479,0.933,1.756,1.191,0.493,0.876,0.843,�k��,5.2,�L
2017/12/13,13:30,0.893,1.477,0.932,1.755,1.192,0.495,0.876,0.844,�k�k��,6.0,�L
2017/12/13,13:40,0.892,1.477,0.932,1.755,1.193,0.495,0.875,0.842,�k��,5.4,�L
2017/12/13,13:50,0.894,1.479,0.933,1.755,1.191,0.495,0.876,0.843,�k�k��,5.3,�L
2017/12/13,14:00,0.892,1.475,0.933,1.754,1.192,0.494,0.877,0.846,�k�k��,5.2,�L
2017/12/13,14:10,0.892,1.477,0.931,1.754,1.189,0.495,0.877,0.843,�k�k��,5.0,��
2017/12/13,14:20,0.894,1.480,0.930,1.756,1.190,0.494,0.876,0.845,�k�k��,5.1,��
2017/12/13,14:30,0.894,1.479,0.934,1.759,1.193,0.495,0.877,0.843,�k�k��,5.5,�L
2017/12/13,14:40,0.893,1.480,0.930,1.755,1.190,0.494,0.877,0.843,�k�k��,6.8,��
2017/12/13,14:50,0.892,1.483,0.931,1.757,1.191,0.493,0.876,0.844,�k��,6.9,��
2017/12/13,15:00,0.892,1.480,0.930,1.753,1.191,0.493,0.880,0.843,�k�k��,7.9,�L
2017/12/13,15:10,0.891,1.478,0.931,1.754,1.190,0.493,0.878,0.843,�k��,8.0,�L
2017/12/13,15:20,0.891,1.480,0.930,1.755,1.190,0.494,0.876,0.842,�k��,6.6,�L
2017/12/13,15:30,0.891,1.475,0.928,1.752,1.190,0.494,0.877,0.844,�k��,6.9,��
2017/12/13,15:40,0.889,1.479,0.932,1.755,1.192,0.493,0.878,0.843,�k��,8.1,��
2017/12/13,15:50,0.890,1.479,0.931,1.753,1.191,0.492,0.877,0.844,�k��,7.4,��
2017/12/13,16:00,0.890,1.479,0.930,1.756,1.189,0.493,0.879,0.842,�k��,6.6,��
2017/12/13,16:10,0.890,1.478,0.931,1.754,1.193,0.493,0.877,0.842,�k��,6.5,��
2017/12/13,16:20,0.888,1.481,0.930,1.753,1.191,0.493,0.876,0.843,�k��,6.1,��
2017/12/13,16:30,0.888,1.478,0.929,1.752,1.189,0.492,0.879,0.842,�k��,5.4,��
2017/12/13,16:40,0.887,1.480,0.927,1.751,1.190,0.493,0.877,0.840,�k��,5.0,��
2017/12/13,16:50,0.885,1.479,0.929,1.754,1.188,0.494,0.877,0.841,�k�k��,5.5,��
2017/12/13,17:00,0.889,1.479,0.928,1.753,1.186,0.494,0.877,0.840,�k��,6.0,��
2017/12/13,17:10,0.884,1.479,0.929,1.752,1.190,0.492,0.874,0.841,���k��,5.2,��
2017/12/13,17:20,0.885,1.476,0.930,1.752,1.189,0.492,0.877,0.843,�k��,5.1,��
2017/12/13,17:30,0.887,1.478,0.928,1.753,1.190,0.492,0.875,0.843,�k��,5.8,��
2017/12/13,17:40,0.887,1.479,0.929,1.753,1.190,0.490,0.876,0.841,�k��,5.3,��
2017/12/13,17:50,0.887,1.477,0.930,1.751,1.188,0.493,0.875,0.844,�k��,4.8,��
2017/12/13,18:00,0.888,1.479,0.926,1.755,1.187,0.491,0.876,0.841,���k��,4.1,��
2017/12/13,18:10,0.887,1.480,0.927,1.751,1.189,0.491,0.875,0.843,���k��,3.9,��
2017/12/13,18:20,0.887,1.480,0.928,1.751,1.187,0.491,0.875,0.841,���k��,4.1,��
2017/12/13,18:30,0.886,1.479,0.928,1.755,1.187,0.492,0.876,0.842,��,4.0,��
2017/12/13,18:40,0.886,1.481,0.928,1.750,1.186,0.491,0.874,0.843,��,3.4,��
2017/12/13,18:50,0.888,1.481,0.928,1.750,1.190,0.493,0.877,0.841,��,6.3,��
2017/12/13,19:00,0.887,1.477,0.929,1.750,1.189,0.490,0.875,0.843,��,5.9,��
2017/12/13,19:10,0.888,1.477,0.930,1.756,1.189,0.493,0.875,0.843,��,6.4,��
2017/12/13,19:20,0.888,1.477,0.928,1.752,1.190,0.491,0.875,0.841,��,5.3,��
2017/12/13,19:30,0.886,1.477,0.928,1.749,1.187,0.492,0.876,0.842,��,4.9,��
2017/12/13,19:40,0.888,1.478,0.929,1.751,1.188,0.492,0.875,0.841,���쐼,3.6,��
2017/12/13,19:50,0.887,1.478,0.928,1.750,1.186,0.493,0.875,0.841,-,CALM,��
2017/12/13,20:00,0.888,1.478,0.928,1.748,1.185,0.492,0.876,0.843,�k��,0.6,��
2017/12/13,20:10,0.886,1.479,0.927,1.749,1.189,0.492,0.875,0.842,���k��,0.6,��
2017/12/13,20:20,0.887,1.476,0.928,1.750,1.186,0.492,0.874,0.844,�쐼,1.1,��
2017/12/13,20:30,0.887,1.476,0.926,1.749,1.186,0.492,0.874,0.841,���k��,0.9,��
2017/12/13,20:40,0.886,1.476,0.927,1.749,1.186,0.492,0.875,0.840,�k��,0.6,��
2017/12/13,20:50,0.888,1.477,0.926,1.750,1.185,0.490,0.874,0.841,-,CALM,��
2017/12/13,21:00,0.888,1.477,0.926,1.751,1.185,0.492,0.873,0.841,-,CALM,��
2017/12/13,21:10,0.887,1.476,0.925,1.748,1.186,0.491,0.874,0.842,���쐼,2.3,��
2017/12/13,21:20,0.884,1.474,0.927,1.750,1.184,0.493,0.876,0.841,�k��,1.8,��
2017/12/13,21:30,0.887,1.476,0.927,1.749,1.185,0.492,0.875,0.841,�k��,4.1,��
2017/12/13,21:40,0.884,1.475,0.926,1.751,1.185,0.492,0.874,0.840,�k��,5.0,��
2017/12/13,21:50,0.884,1.478,0.925,1.751,1.187,0.491,0.874,0.842,�k��,6.3,��
2017/12/13,22:00,0.885,1.478,0.929,1.754,1.186,0.492,0.875,0.842,�k��,6.7,��
2017/12/13,22:10,0.886,1.476,0.925,1.749,1.186,0.493,0.876,0.839,�k��,8.0,��
2017/12/13,22:20,0.884,1.478,0.927,1.751,1.186,0.491,0.875,0.842,���k��,7.5,��
2017/12/13,22:30,0.887,1.478,0.926,1.751,1.184,0.491,0.874,0.842,�k��,7.0,��
2017/12/13,22:40,0.884,1.475,0.927,1.748,1.185,0.491,0.875,0.842,���k��,7.1,��
2017/12/13,22:50,0.883,1.477,0.926,1.751,1.184,0.492,0.874,0.840,���k��,8.3,��
2017/12/13,23:00,0.886,1.476,0.925,1.752,1.182,0.491,0.875,0.839,���k��,6.1,��
2017/12/13,23:10,0.886,1.476,0.929,1.752,1.186,0.491,0.876,0.844,��,7.1,��
2017/12/13,23:20,0.885,1.478,0.928,1.749,1.181,0.491,0.876,0.841,���k��,6.7,��
2017/12/13,23:30,0.884,1.477,0.925,1.751,1.184,0.492,0.875,0.841,���k��,7.0,��
2017/12/13,23:40,0.885,1.475,0.927,1.755,1.185,0.490,0.875,0.842,���k��,8.0,��
2017/12/13,23:50,0.884,1.479,0.926,1.752,1.184,0.491,0.878,0.842,�k��,4.3,��
